Regional Weather Roundup
Issued by NWS

Home | Current Version | Previous Version | Text Only | Print | Product List | Glossary On
Versions: 1 2 3 4 5 6 7 8 9 10 11 12 13 14 15 16 17 18 19 20 21 22 23 24 25 26 27 28 29 30 31 32 33 34 35 36 37 38 39 40 41 42 43 44 45 46 47 48 49 50
000
ASCA44 KEWX 312120
RWRMX

LATIN AMERICA AND CARIBBEAN REGIONAL WEATHER ROUNDUP
NATIONAL WEATHER SERVICE AUSTIN/SAN ANTONIO TX
300 PM CST SAT JAN 31 2015

NOTE: "FAIR" INDICATED FEW OR NO CLOUDS BELOW 12,000 FEET WITH NO
SIGNIFICANT WEATHER AND/OR OBSTRUCTIONS TO VISIBILITY.

BAJA CALIFORNIA

CITY           SKY/WX    TMP DP  RH WIND       PRES   REMARKS
LORETO         MOSUNNY   73  55  53 CALM      29.82F
LA PAZ         PTSUNNY   75  59  57 S13       29.89
MEXICALI       PTSUNNY   68  46  45 NW12      29.85
S.J. DEL CABO  MOSUNNY   73  61  64 E6        29.88F
TIJUANA        MOSUNNY   64  48  55 NW5       29.90F

NORTHWESTERN MEXICO

CITY           SKY/WX    TMP DP  RH WIND       PRES   REMARKS
CULIACAN       PTSUNNY   77  61  57 CALM      29.91
DURANGO        PTSUNNY   59  41  51 S21       30.08F
GUAYMAS        MOSUNNY   70  57  64 SW12      29.81
HERMOSILLO     PTSUNNY   72  54  53 S9        29.86
CD. JUAREZ     MOSUNNY   59  50  72 SW12      29.80
LOS MOCHIS     PTSUNNY   73  59  60 S23       29.88F
OBREGON        PTSUNNY   70  57  64 W6        29.83

NORTHEASTERN MEXICO

CITY           SKY/WX    TMP DP  RH WIND       PRES   REMARKS
CHIHUAHUA      PTSUNNY   63  34  34 SW10      29.89
MATAMOROS      PTSUNNY   73  64  73 SE21      30.00
MONTERREY      CLOUDY    66  57  72 CALM      29.94F
NUEVO LAREDO   CLOUDY    68  63  83 SW6       29.93F
PIEDRAS NEGRAS CLOUDY    57  55  94 CALM      29.95F FOG
REYNOSA        PTSUNNY   73  55  53 SE21      29.93
SALTILLO       CLOUDY    63  52  67 N9        30.05S
TORREON          N/A    N/A N/A N/A MISG        N/A
CD. VICTORIA   PTSUNNY   70  57  64 S14G25    29.94

WESTERN MEXICO

CITY           SKY/WX    TMP DP  RH WIND       PRES   REMARKS
AGUASCALIENTES MOSUNNY   68  30  24 SW17G31   30.11
COLIMA         PTSUNNY   77  63  61 CALM      29.99F
DEL BAJIO      PTSUNNY   70  43  37 SW5       30.17F
GUADALAJARA    PTSUNNY   72  39  30 NW3       30.07
MANZANILLO     PTSUNNY   84  72  65 S12       29.85F
MAZATLAN       PTSUNNY   77  57  50 SE7       29.86F
P. VALLARTA    MOSUNNY   84  66  54 W12       29.85F
URUAPAN        CLOUDY    68  57  68 SW12      30.13F
ZACATECAS      PTSUNNY   66  34  30 SW35      30.10S

CENTRAL MEXICO

CITY           SKY/WX    TMP DP  RH WIND       PRES   REMARKS
CUERNAVACA     SUNNY     77  32  19 S6        30.05F
MEXICO CITY    SUNNY     75  19  12 S12       30.13F
MORELIA        MOSUNNY   70  46  43 S12       30.12
POZA RICA      CLOUDY    68  59  73 CALM      30.00F
PUEBLA         MOSUNNY   66  36  32 S15       30.18F
QUERETARO      MOSUNNY   73  37  27 W21       30.14F
S. LUIS POTOSI PTSUNNY   70  36  28 SW17G29   30.06F
TAMPICO        MOSUNNY   73  61  64 SE7       29.99F
TOLUCA         MOSUNNY   68  30  24 S7        30.23F

SOUTHERN MEXICO

CITY           SKY/WX    TMP DP  RH WIND       PRES   REMARKS
ACAPULCO       SUNNY     84  73  70 SW7       29.87F HX  91
B. DE HUATULCO MOSUNNY   84  73  70 S8        29.89  HX  91
OAXACA         MOSUNNY   75  41  29 S7        30.10F
P. ESCONDIDO   MOSUNNY   81  72  74 S13       30.01F
ZIHUATANEJO    MOSUNNY   86  73  66 SW10      29.89F HX  93

YUCATAN PENINSULA

CITY           SKY/WX    TMP DP  RH WIND       PRES   REMARKS
CAMPECHE       MOSUNNY   82  61  47 E10       29.96F
CANCUN         MOSUNNY   77  57  50 E10       30.08F
CHETUMAL       PTSUNNY   79  73  83 NE6       30.00
CD. DEL CARMEN MOSUNNY   82  61  47 E10       29.97
COZUMEL        MOSUNNY   73  63  68 E12       30.07F
MERIDA         PTSUNNY   84  54  34 E6        30.01F
MINATITLAN     PTSUNNY   77  68  73 N12       29.93
TAPACHULA      SUNNY     86  72  62 W12       29.86F HX  92
TUX. GUTIERREZ SUNNY     82  54  36 E13       29.94F
VILLAHERMOSA   MOSUNNY   79  63  57 NE9       29.97F

CENTRAL AMERICA

CITY           SKY/WX    TMP DP  RH WIND       PRES   REMARKS
BELIZE CITY    PTSUNNY   82  66  57 NE7       30.00F
MANAGUA        PTCLDY    90  64  43 E23       29.80F HX  91

CARIBBEAN

CITY           SKY/WX    TMP DP  RH WIND       PRES   REMARKS
ARUBA          MOSUNNY   82  75  78 NE18      29.86S
CURACAO        MOSUNNY   84  75  74 E12       29.89S HX  92
KINGSTON       PTSUNNY   82  70  65 N10       29.92F
NASSAU         MOSUNNY   72  59  64 NE12      30.19R
SAN JUAN       MOSUNNY   81  72  74 NE15      29.98S
SANTO DOMINGO  PTSUNNY   77  72  83 NE9       29.97R
ST. KITTS      MOSUNNY   81  70  69 N8        29.97S
ST. MAARTEN    MOSUNNY   81  70  69 NE10      29.97S
ST. THOMAS     MOSUNNY   79  70  73 NE10      29.98S

$$




USA.gov is the U.S. government's official web portal to all federal, state and local government web resources and services.